Satellite: RAX-2 Catalog number: 37853 Epoch time: 12026.88522335 Element set: 80 Inclination: 101.7085 deg RA of node: 002.4510 deg Eccentricity: 0.0251627 Arg of perigee: 036.1473 deg Mean anomaly: 325.6445 deg Mean motion: 14.78600858 rev/day Decay rate: 8.574e-05 rev/day^2 Epoch rev: 1335 Checksum: 285
Satellite: AUBIESAT Catalog number: 37854 Epoch time: 12026.87202004 Element set: 82 Inclination: 101.7114 deg RA of node: 002.5177 deg Eccentricity: 0.0253335 Arg of perigee: 035.7882 deg Mean anomaly: 325.9999 deg Mean motion: 14.78857505 rev/day Decay rate: 9.549e-05 rev/day^2 Epoch rev: 1334 Checksum: 304
Satellite: HRBE Catalog number: 37855 Epoch time: 12025.92746880 Element set: 0092 Inclination: 101.7130 deg RA of node: 001.1320 deg Eccentricity: 0.0253830 Arg of perigee: 038.3261 deg Mean anomaly: 323.5705 deg Mean motion: 14.78768749 rev/day Decay rate: 8.640e-05 rev/day^2 Epoch rev: 01320 Checksum: 275
/EX